sat.trackr.live / text

‹ back to catalog

ONEWEB-0150

NORAD 48047 · 2021-025F

PAYLOAD ACTIVE UNKNOWN

§ Identity

Operator
Country
UK
Launch date
2021-03-25
Launch site
VOSTO
Launch vehicle
Mass (kg)
RCS (m²)

Purposes: comms

External: N2YO · Heavens-Above · Gunter

§ Orbital elements

Epoch: 2026-05-25T00:30:23.681088Z

Period
109.63 min
Inclination
87.8948°
Eccentricity
0.0001971
Mean motion
13.13468455 rev/d
Perigee alt
1,208.3 km
Apogee alt
1,211.3 km
Semi-major
7,587.9 km
B*
6.6591e-4
RAAN
324.8285°
Arg perigee
95.6219°
Mean anomaly
264.5135°
Rev number
25,050

§ Raw data

ONEWEB-01501 48047U 21025F   26145.02110742  .00000256  00000+0  66591-3 0  99902 48047  87.8948 324.8285 0001971  95.6219 264.5135 13.13468455250509

JSON: /api/v1/satellites/48047 · /tle

For live sub-satellite position, see the globe view (requires WebGL).

§ Visibility from observer

Set your observer location to see the next 7 days of passes ≥ 10°. The values pass through the URL so the page stays shareable.

No JS? Fill the form by hand. The geolocation button needs JavaScript.